Theta_e
320 315 315 309 299 292 287 291 292 294 294 296 299 300 297 296 297 295 313 314 319 331 341 343 347 349 350 350 350 348 348 349 349 350 350 350 349 349 349 349 349 347 346 345 344 344 345 347 349
315 316 311 302 293 286 287 290 292 294 298 299 300 297 296 294 302 305 306 312 323 336 342 343 345 348 346 349 350 350 349 349 349 349 349 348 349 349 348 349 348 348 346 346 345 343 344 347 348
316 314 304 296 288 287 287 291 291 296 298 298 296 298 297 296 301 303 306 309 311 312 321 325 337 343 342 344 346 347 347 348 348 349 350 347 348 348 348 348 349 349 346 346 346 344 345 346 347
307 306 299 291 287 289 292 292 295 296 297 300 298 294 298 302 302 303 306 308 308 310 312 320 328 330 334 339 342 343 342 343 345 346 346 348 348 348 346 347 348 347 346 345 346 346 348 345 346
304 298 292 289 287 290 291 294 295 294 295 296 297 294 295 300 302 302 303 305 303 304 308 310 323 324 327 328 330 334 335 339 340 342 343 344 346 345 346 346 347 347 346 345 345 348 349 348 347
299 296 290 286 289 291 292 294 295 294 295 294 295 293 294 298 299 299 301 300 302 301 303 304 311 318 321 323 323 326 329 333 336 338 339 341 342 343 344 345 344 345 345 345 346 348 347 347 347
296 293 290 288 290 291 294 295 294 292 292 295 296 291 293 295 298 298 298 298 298 299 300 300 301 307 313 317 318 319 319 322 328 331 334 335 338 340 340 341 342 343 344 345 346 345 346 347 346
298 294 290 290 290 290 294 295 295 295 293 297 295 290 288 293 296 296 296 296 296 297 296 297 299 300 302 303 313 315 314 316 320 325 329 329 330 333 335 334 336 341 342 342 343 341 343 345 345
301 293 290 289 290 291 294 294 295 295 292 293 294 292 294 294 294 293 293 293 294 297 295 296 297 298 300 301 304 308 309 311 315 319 321 322 326 328 330 331 333 338 339 339 340 341 341 338 337
296 292 292 293 293 292 294 293 294 292 290 290 290 293 293 292 291 291 290 290 290 292 294 294 294 296 298 300 300 300 302 302 307 313 313 318 321 324 326 325 327 331 332 335 337 338 337 333 333
294 291 295 296 296 296 295 293 293 291 289 290 289 289 290 290 289 290 289 289 289 290 292 294 293 294 295 296 297 296 299 299 305 307 308 311 311 318 321 325 328 328 324 327 330 332 333 330 330
292 296 297 299 298 296 294 294 291 290 290 292 290 290 289 288 288 289 288 288 288 289 291 292 293 293 293 293 293 293 294 297 300 304 307 306 309 306 307 311 315 324 326 325 327 328 328 327 329
293 295 297 297 297 296 296 292 291 288 290 291 290 290 288 288 288 288 288 288 287 287 289 290 291 291 292 292 291 292 291 293 296 299 302 305 305 303 306 305 305 309 316 325 325 326 325 326 330
295 296 296 297 296 296 293 290 291 290 290 289 289 288 288 289 288 287 287 286 287 288 288 288 289 290 291 291 290 291 292 293 294 294 297 302 302 300 303 302 301 310 313 312 320 326 325 326 328
295 292 294 294 295 294 293 289 290 291 289 288 287 287 288 288 287 286 286 286 285 286 287 287 289 290 289 290 291 292 292 293 293 293 295 298 298 298 301 300 301 307 308 305 305 316 325 325 326
291 289 287 292 294 293 291 286 290 290 289 286 285 284 286 286 286 285 286 286 284 285 286 287 290 289 290 289 291 291 292 292 292 293 294 294 294 296 299 298 300 302 303 303 302 303 317 322 323
287 284 285 288 294 292 290 286 289 289 287 285 283 283 283 283 283 284 285 284 284 284 285 286 287 288 289 290 290 290 290 291 292 292 292 292 293 294 298 297 299 299 300 300 301 302 302 318 321
284 282 284 285 289 290 289 288 288 289 285 284 282 282 281 282 284 285 285 284 284 284 284 285 287 287 288 289 289 289 289 289 290 289 290 290 291 292 294 296 298 298 299 298 300 300 302 301 313
286 285 284 287 291 288 288 290 287 289 284 282 281 280 280 282 284 284 284 283 283 283 284 284 286 286 287 287 286 286 285 286 286 287 287 287 289 290 290 292 294 296 297 297 298 300 300 300 302
287 285 285 288 289 287 287 286 289 288 286 285 283 280 280 281 282 283 283 282 282 282 283 284 285 286 286 286 286 285 284 284 284 284 284 284 284 285 285 287 290 294 296 297 297 298 298 299 300
285 285 284 284 286 285 284 282 287 285 286 283 282 282 281 281 282 282 283 280 281 281 282 284 285 285 285 285 285 284 283 283 282 281 281 282 282 282 283 283 285 290 294 295 294 296 296 296 298
283 286 286 284 281 278 281 277 280 281 282 282 282 280 280 280 282 282 282 280 280 282 282 283 285 285 285 284 282 280 279 278 280 280 280 280 281 280 282 284 287 288 292 294 293 294 294 296 296
285 285 284 283 280 277 279 276 279 279 279 280 281 280 279 280 281 281 282 282 282 282 281 282 283 283 284 283 281 279 278 278 279 279 278 278 278 280 280 283 283 286 287 293 293 292 294 296 296
288 285 283 280 278 272 278 277 275 276 280 281 282 279 280 280 280 281 282 282 282 282 281 281 282 281 282 281 279 278 277 277 276 276 275 276 276 278 279 279 280 282 286 287 293 294 294 294 294
286 281 276 273 271 274 277 275 282 282 282 282 282 279 279 279 279 280 280 280 281 280 281 281 281 280 280 279 279 278 277 276 275 275 275 274 274 275 275 276 278 280 282 285 287 294 292 293 293
284 282 277 270 271 279 275 275 280 280 280 283 283 280 278 278 279 280 280 280 280 280 280 279 279 279 279 278 278 277 277 276 276 275 274 273 274 273 274 276 277 277 280 286 286 293 293 293 293
281 278 281 274 262 266 274 277 281 278 277 277 278 278 277 278 278 279 280 280 279 279 279 279 278 279 278 277 277 276 276 275 274 274 274 274 274 274 275 274 274 276 280 280 285 285 292 292 293
282 283 276 275 269 266 273 275 279 275 275 276 276 276 277 278 278 279 279 279 279 279 278 278 278 277 277 276 275 274 274 274 274 274 273 273 273 273 273 273 273 273 275 277 281 283 292 291 291
277 277 278 277 279 272 271 280 280 279 279 276 277 278 277 277 278 278 279 279 279 278 277 276 275 275 275 274 273 273 273 273 273 273 272 272 273 272 271 271 272 273 275 276 278 282 285 290 290
280 281 281 275 274 275 275 278 282 281 281 279 278 278 277 278 278 278 278 277 277 276 275 274 274 274 274 273 272 271 272 272 272 271 272 272 271 272 271 271 271 271 272 274 276 279 280 289 288
Wind_Speed
5 2 3 5 5 6 1 2 2 2 2 1 2 10 11 7 4 7 5 13 13 9 7 7 9 6 7 9 8 6 6 7 8 9 9 9 10 10 10 9 9 9 10 11 11 12 13 10 11
3 2 5 3 6 4 4 2 3 3 5 5 7 6 11 5 7 7 8 16 10 11 8 7 10 12 14 13 10 6 7 9 10 11 12 12 12 12 11 11 8 9 11 13 13 12 13 12 11
3 3 4 5 4 4 5 3 3 2 0 3 7 8 6 8 5 5 8 8 17 17 14 14 17 13 14 17 15 14 12 8 10 12 14 15 13 12 12 11 11 11 13 13 15 14 13 13 11
2 5 5 5 3 1 7 5 4 5 2 10 11 10 6 8 5 5 7 10 16 14 13 18 25 23 21 20 18 17 16 17 15 14 13 15 15 14 13 12 12 13 14 15 16 15 14 13 12
4 3 4 4 2 1 3 2 4 3 3 6 4 5 7 5 6 5 8 9 13 12 11 14 23 25 25 25 23 21 22 21 18 17 16 17 16 15 15 14 13 14 15 17 17 15 14 14 12
4 3 5 1 3 2 3 0 5 4 4 4 8 7 4 4 6 6 6 9 8 11 11 12 17 21 23 24 28 26 25 23 21 20 21 19 17 18 18 16 15 15 16 17 17 17 15 14 14
6 4 3 2 6 2 2 0 5 4 3 5 4 6 5 5 6 5 8 8 9 9 11 10 10 13 17 19 24 26 28 27 25 22 20 20 18 19 18 18 16 16 17 17 17 16 15 14 14
5 5 2 0 4 2 3 3 5 6 2 1 2 7 5 1 5 7 8 8 8 8 8 9 9 10 10 10 20 21 24 25 25 24 20 18 17 15 17 14 14 17 17 19 19 18 16 16 15
3 5 1 2 3 2 2 3 5 4 8 6 5 4 6 1 4 9 7 9 7 8 7 7 9 10 9 11 12 16 20 22 22 20 23 18 10 12 13 12 13 18 18 19 20 20 18 16 14
5 4 2 1 3 3 1 3 8 6 4 5 6 6 6 6 7 9 8 7 8 8 8 8 8 8 7 9 9 9 9 9 9 10 14 12 16 13 13 14 15 18 18 20 22 21 19 13 6
2 3 2 1 3 3 4 1 2 13 2 7 10 8 5 7 7 8 5 4 4 5 5 7 6 6 6 5 4 3 4 6 7 10 10 11 11 10 11 10 7 7 10 8 11 12 9 9 7
3 1 2 6 3 4 5 4 5 1 3 10 12 11 7 9 7 6 5 4 4 5 7 8 8 7 7 4 4 4 5 6 5 8 12 9 7 10 11 9 13 12 7 10 10 9 11 9 9
1 4 3 1 5 6 7 1 7 4 6 9 10 8 9 7 6 5 5 4 3 4 5 7 7 6 5 5 4 7 5 4 5 5 8 9 9 10 8 10 11 12 12 11 10 11 10 10 11
2 3 7 6 2 5 7 3 2 8 7 9 9 9 8 9 7 4 4 4 5 5 5 6 6 6 7 6 6 7 7 9 9 6 6 9 9 10 9 8 11 10 10 12 14 12 12 12 11
3 5 6 4 5 5 10 1 9 9 10 11 10 9 8 7 6 5 5 5 3 3 4 6 6 6 7 6 7 7 7 8 8 8 7 8 9 13 13 8 9 9 9 14 13 17 12 12 11
2 3 3 3 3 1 6 10 5 10 14 11 9 7 8 7 7 6 6 5 5 5 5 6 6 7 9 6 8 8 9 9 11 10 10 11 14 17 13 9 11 7 9 10 10 12 17 12 13
5 3 5 7 8 2 6 7 5 8 11 10 9 8 7 6 5 5 5 4 5 5 4 5 6 7 10 9 10 10 9 8 8 8 12 16 19 19 14 12 11 9 8 8 9 12 12 14 11
5 5 6 7 3 4 7 14 8 14 9 13 9 8 8 7 7 9 7 4 5 5 5 5 5 7 9 7 6 6 9 9 10 10 12 17 15 19 16 13 12 11 9 8 8 10 12 11 14
3 5 7 6 6 5 11 17 13 16 9 10 10 10 9 9 7 7 5 4 5 6 6 5 8 8 6 6 8 9 10 11 10 10 16 16 16 18 17 14 14 12 11 9 8 9 13 11 13
5 6 8 10 5 3 9 11 9 16 21 22 17 11 10 6 7 7 5 4 5 4 4 7 7 5 5 4 6 6 9 8 10 10 13 16 17 17 18 18 18 16 12 13 8 7 10 11 10
5 6 6 8 4 6 9 8 18 3 10 7 9 10 8 10 9 7 5 3 3 5 4 6 6 6 5 5 6 8 9 9 9 11 12 11 17 19 19 21 18 19 14 11 8 5 8 11 12
6 2 5 4 4 4 4 12 4 7 15 12 14 10 10 9 7 6 5 1 1 3 3 5 6 6 5 5 5 7 9 14 11 13 12 14 17 18 18 19 19 17 14 13 8 6 7 8 14
8 0 4 3 5 3 7 6 6 3 9 14 17 13 10 9 9 8 6 2 2 3 4 4 7 6 5 4 4 5 9 10 11 12 18 16 15 15 18 17 19 16 13 17 13 7 8 6 13
1 3 4 3 3 2 7 9 6 7 11 9 15 11 12 9 9 7 4 2 4 5 5 5 7 6 6 5 5 6 11 13 13 15 15 13 13 12 15 19 18 17 16 16 13 12 9 7 11
4 5 5 6 3 9 5 3 17 9 8 11 23 17 11 9 8 7 6 5 5 6 6 6 6 7 6 7 8 9 11 13 15 15 13 18 14 12 15 18 16 14 17 18 17 15 9 7 9
6 7 7 7 5 15 2 11 8 5 7 7 12 14 10 9 8 7 7 6 6 6 7 7 6 9 8 9 11 10 11 9 11 13 14 13 14 15 18 16 17 18 20 16 16 16 9 8 8
5 6 1 1 2 4 7 8 6 4 3 6 11 11 10 9 8 8 7 6 7 6 7 6 7 10 11 12 11 12 11 13 13 16 16 13 16 15 16 19 19 19 18 18 17 13 14 9 9
4 4 3 2 3 8 7 11 14 8 11 8 11 13 10 9 8 7 6 7 5 5 6 7 6 9 11 11 11 12 13 14 14 14 18 18 18 18 19 19 18 20 19 19 18 12 15 9 7
1 4 3 2 5 6 5 19 7 16 19 20 18 16 13 10 8 7 6 6 3 4 6 7 6 8 12 12 13 14 14 15 15 14 17 18 19 18 19 18 18 17 17 17 17 18 19 12 8
3 11 13 6 7 8 3 21 4 10 12 19 17 14 9 8 9 8 6 4 5 6 6 6 6 9 11 13 14 15 16 16 16 16 18 18 19 18 18 18 18 18 18 18 17 18 15 13 11
Wind_Direction
323 43 94 45 56 65 359 21 44 114 67 276 84 91 96 37 40 130 259 356 330 31 42 29 26 8 313 297 267 245 247 249 250 251 245 236 242 244 240 254 244 251 269 271 271 278 278 276 275
336 101 45 82 83 70 283 299 134 167 175 125 82 61 39 58 21 77 15 340 18 36 34 33 35 16 7 353 326 300 266 274 273 272 262 257 253 253 254 262 248 249 258 270 268 265 271 273 273
319 60 84 96 109 152 177 226 171 175 74 109 107 61 39 331 355 78 324 340 40 35 34 24 18 16 11 1 357 356 331 294 280 282 281 278 261 259 269 265 273 250 254 258 267 266 261 266 270
44 14 32 81 122 118 166 200 156 131 337 77 112 68 81 328 65 348 301 27 42 29 24 27 29 27 21 7 2 4 360 343 320 297 282 281 280 279 269 268 264 262 259 264 260 264 261 258 260
37 59 58 87 98 75 279 206 70 78 83 54 98 118 96 2 357 13 23 36 45 34 25 24 21 23 28 26 17 3 353 344 342 325 309 295 285 280 273 269 263 259 261 265 265 262 264 262 260
38 94 57 131 117 210 276 351 104 74 55 93 71 95 86 352 22 346 35 37 37 37 24 27 22 20 19 19 15 11 7 359 350 340 331 312 297 288 280 272 268 263 260 260 262 265 259 252 254
106 77 169 164 157 181 186 239 81 79 39 23 161 84 113 21 325 32 36 34 32 30 29 17 17 17 19 19 15 10 4 359 355 348 340 333 313 295 276 273 266 262 263 258 256 253 257 255 249
100 87 51 74 171 183 340 71 105 71 76 24 60 153 143 217 344 45 40 32 27 25 24 19 12 13 9 15 11 8 3 356 352 347 341 334 326 314 289 274 269 271 265 262 254 252 250 253 253
103 60 15 327 138 159 345 104 32 1 83 50 24 87 124 112 59 51 35 28 19 15 14 10 14 13 6 13 6 2 358 355 352 351 348 343 336 325 312 284 257 262 266 264 263 252 244 249 248
84 101 218 345 130 150 27 121 145 92 67 63 84 72 83 71 66 66 50 28 17 7 353 6 10 5 5 10 2 354 352 346 343 349 348 345 337 330 314 300 287 276 262 261 262 255 247 242 237
148 164 193 85 140 169 148 72 66 129 187 195 161 143 120 92 79 90 76 56 23 344 354 344 348 350 1 1 354 347 343 341 336 342 347 346 336 333 334 324 304 285 274 271 264 255 244 239 228
350 294 195 175 200 147 155 132 64 0 148 136 149 153 139 108 101 97 84 58 27 11 354 346 347 343 344 343 353 342 348 343 340 340 336 339 340 341 328 329 332 313 276 269 259 250 239 229 227
164 316 338 121 172 125 109 141 147 128 138 129 137 131 128 127 126 125 123 92 52 22 346 335 333 329 333 355 350 351 340 327 317 331 330 331 335 331 322 325 324 313 322 280 260 249 241 232 223
312 297 287 289 178 161 122 176 76 219 173 145 140 147 149 140 154 137 102 83 36 347 341 315 330 329 348 2 356 349 339 336 328 320 321 329 324 318 310 319 320 307 325 328 307 247 241 236 220
325 328 324 243 190 202 112 331 230 161 171 168 169 167 160 156 134 122 110 91 43 341 322 316 352 355 2 358 357 347 340 332 321 309 310 310 316 316 303 306 307 309 317 316 313 307 235 235 227
14 56 351 279 165 196 130 256 236 175 167 181 176 173 168 177 159 137 127 105 50 26 346 322 351 359 7 6 5 353 342 335 328 323 327 320 320 314 297 298 297 290 307 308 312 300 290 228 226
4 241 229 310 204 135 184 265 226 183 182 186 193 185 178 165 164 144 121 98 55 27 353 337 346 6 10 6 358 348 337 331 326 324 324 322 320 312 294 292 286 288 286 294 304 311 285 274 224
247 280 271 238 263 195 246 261 194 198 197 198 193 193 184 174 182 165 151 110 59 23 11 349 348 13 14 1 347 339 337 333 327 324 318 317 315 314 304 294 283 289 273 281 291 298 304 281 298
204 233 229 251 252 222 231 245 207 200 206 206 203 197 187 191 195 166 149 99 41 28 18 346 9 3 1 355 353 343 334 332 323 322 321 326 315 320 322 314 299 286 266 263 274 292 295 294 272
230 260 263 285 241 206 270 248 233 189 213 207 192 193 189 194 185 179 153 77 43 4 8 6 356 330 343 358 344 335 330 321 315 321 319 316 312 315 310 309 303 287 275 267 256 278 286 279 268
231 211 251 239 341 292 286 247 242 225 228 189 191 194 185 184 187 180 166 99 27 11 359 353 334 326 332 353 337 334 320 322 322 319 312 311 311 309 310 300 290 290 283 260 248 257 279 288 288
276 229 258 284 3 259 351 292 243 195 226 203 188 197 186 190 185 165 160 148 12 332 320 333 323 308 331 337 334 331 331 320 313 309 309 311 312 304 296 300 291 302 299 258 245 229 247 280 278
236 75 263 262 257 350 229 258 246 143 248 210 197 193 189 195 177 171 170 190 255 298 286 306 297 288 295 306 332 339 309 302 304 307 306 304 305 297 299 295 310 304 303 284 249 228 235 226 269
31 334 299 47 100 259 233 196 226 194 217 192 202 187 187 185 179 172 178 208 260 272 281 283 265 274 293 339 327 301 296 305 309 306 301 308 307 297 302 298 298 301 300 303 270 241 217 248 273
80 56 315 335 347 236 177 237 257 237 225 195 195 181 183 180 170 186 205 230 254 266 263 271 291 282 334 334 312 301 298 303 296 300 301 307 301 300 300 295 289 298 295 292 297 251 218 222 261
176 175 167 258 245 292 354 246 254 291 305 228 172 163 170 175 179 194 212 229 248 252 262 277 285 328 326 318 309 307 293 288 288 296 297 291 289 297 291 286 294 297 287 292 291 274 225 207 237
177 191 150 174 124 10 238 278 282 85 49 108 148 162 182 185 191 205 217 229 250 240 260 311 335 323 318 312 310 300 292 296 291 297 294 289 288 289 292 294 284 283 286 299 286 296 254 220 216
164 155 67 5 281 272 263 269 245 198 206 188 185 193 196 196 201 210 219 245 237 288 322 321 294 295 305 306 300 301 300 296 294 298 295 291 287 288 291 293 295 292 289 291 294 288 265 235 251
157 216 200 189 164 223 296 279 209 192 202 192 201 195 191 195 198 209 228 258 246 282 274 271 286 302 308 309 308 306 300 299 298 296 295 290 290 287 287 289 287 288 292 294 292 286 291 245 248
236 204 183 180 223 236 193 259 169 207 196 195 202 192 189 188 193 207 221 211 247 259 279 288 302 308 315 313 309 305 305 307 303 298 294 294 292 288 289 289 286 288 283 282 278 284 289 254 232